Tracking 19730 objects as of 27-Jun-2019
HD Live streaming from Space Station
objects crossing your sky now

SL-8 DEB

Track SL-8 DEB now!
10-day predictions


NORAD ID: 21406
Int'l Code: 1991-009BV
Perigee: 1,443.0 km
Apogee: 1,657.9 km
Inclination: 73.9 °
Period: 116.9 minutes
Semi major axis: 7921 km
RCS: 0.1021 m2 (medium)
Launch date: February 12, 1991
Source: Commonwealth of Independent States (former USSR) (CIS)
Launch site: PLESETSK MISSILE AND SPACE COMPLEX (PKMTR)

Note: This is SATELLITE DEBRIS
aabbcc
Your satellite tracking list
Your tracking list is empty




NASA's NSSDC Master Catalog

Two Line Element Set (TLE):
1 21406U 91009BV  19177.37168293 +.00000105 +00000-0 +97273-3 0  9993
2 21406 073.9132 136.5480 0135618 119.2294 006.2052 12.31389980266945
Source of the keplerian elements: AFSPC